GSAT-29

Last updated on Jan. 21, 2021, 6:16 a.m. UTC

1 43698U 18089A   21020.93382616  .00000093  00000-0  00000-0 0  9991
2 43698   0.0711 100.3471 0003139 177.1489 234.2417  1.00271343  8002
UTC
Height (km)
Latitude
Longitude
Inclination
Orbital Period
UTC large
Height (km)
Speed (km/s)
/
Latitude / Longitude
Inclination (degrees)
Orbital Period (minutes)
Azimuth
Elevation
Range (km)
Doppler Factor
iOS Compass Heading
iOS Angle

Next 30 passes for location: Hong Kong

Rise time Rise Azimuth (degrees) Set time Set Azimuth (degrees) Duration Max altitude (degrees)

No matching passes for this satellites